MBE NZWL-NZWL

Flight info

Callsign MBE
Flight time N/A
Altitude 3500
Route NZCH
Aircraft PA24/L-SDGRY/S

Departure

Time 2026-04-19 08:12
Airport West Melton Aerodrome (NZWL)

Arrival

Time N/A
Airport West Melton Aerodrome (NZWL)
Time Latitude Longitude Altitude Speed Heading
2026-04-19 08:06 -43.47779 172.38801 289 ft 0 kts 97°
2026-04-19 08:09 -43.47794 172.38815 292 ft 5 kts 155°
2026-04-19 08:09 -43.47842 172.38857 307 ft 10 kts 151°
2026-04-19 08:09 -43.47888 172.38864 297 ft 4 kts 236°
2026-04-19 08:10 -43.47895 172.38840 298 ft 0 kts 229°
2026-04-19 08:11 -43.47899 172.38816 298 ft 5 kts 292°
2026-04-19 08:11 -43.47870 172.38839 298 ft 21 kts 69°
2026-04-19 08:11 -43.47741 172.39262 317 ft 72 kts 65°
2026-04-19 08:11 -43.47512 172.40014 390 ft 94 kts 69°
2026-04-19 08:12 -43.47234 172.40842 636 ft 95 kts 62°
2026-04-19 08:12 -43.46892 172.41625 876 ft 99 kts 49°
2026-04-19 08:12 -43.46274 172.41779 1057 ft 93 kts 320°
2026-04-19 08:12 -43.46135 172.41090 1281 ft 75 kts 251°
2026-04-19 08:13 -43.46286 172.40425 1476 ft 75 kts 242°
2026-04-19 08:13 -43.46551 172.39766 1505 ft 80 kts 236°
2026-04-19 08:13 -43.46862 172.39142 1570 ft 76 kts 231°
2026-04-19 08:13 -43.47354 172.39087 1404 ft 99 kts 152°
2026-04-19 08:14 -43.47558 172.40053 1358 ft 110 kts 104°
2026-04-19 08:14 -43.47461 172.42127 1443 ft 112 kts 61°
2026-04-19 08:14 -43.46773 172.42415 1411 ft 109 kts 329°
2026-04-19 08:15 -43.46532 172.41647 1396 ft 87 kts 243°
2026-04-19 08:15 -43.47036 172.41373 1371 ft 90 kts 166°
2026-04-19 08:15 -43.47242 172.42203 1346 ft 113 kts 73°
2026-04-19 08:15 -43.46914 172.43132 1455 ft 107 kts 68°
2026-04-19 08:16 -43.46555 172.44048 1460 ft 110 kts 66°
2026-04-19 08:16 -43.46312 172.45014 1483 ft 106 kts 83°
2026-04-19 08:16 -43.46131 172.45995 1426 ft 106 kts 82°
2026-04-19 08:16 -43.45923 172.46973 1441 ft 106 kts 79°
2026-04-19 08:17 -43.45696 172.47928 1458 ft 106 kts 77°
2026-04-19 08:17 -43.45427 172.48882 1497 ft 105 kts 75°
2026-04-19 08:17 -43.45147 172.49756 1443 ft 94 kts 69°
2026-04-19 08:17 -43.44840 172.50575 1350 ft 97 kts 69°
2026-04-19 08:18 -43.44552 172.51387 1325 ft 92 kts 71°
2026-04-19 08:18 -43.44490 172.52213 1238 ft 85 kts 121°
2026-04-19 08:18 -43.44836 172.52860 1135 ft 84 kts 136°
2026-04-19 08:18 -43.45183 172.53490 1032 ft 87 kts 135°
2026-04-19 08:19 -43.45556 172.54148 930 ft 90 kts 136°
2026-04-19 08:19 -43.45998 172.54759 762 ft 90 kts 157°
2026-04-19 08:19 -43.46579 172.54860 619 ft 83 kts 195°
2026-04-19 08:19 -43.47087 172.54561 469 ft 74 kts 209°
2026-04-19 08:20 -43.47482 172.54185 365 ft 65 kts 221°
2026-04-19 08:20 -43.47866 172.53843 236 ft 66 kts 206°
2026-04-19 08:20 -43.48216 172.53522 133 ft 61 kts 224°
2026-04-19 08:20 -43.48502 172.53198 116 ft 58 kts 217°
2026-04-19 08:21 -43.48852 172.52833 311 ft 65 kts 219°
2026-04-19 08:21 -43.49219 172.52443 555 ft 69 kts 221°
2026-04-19 08:21 -43.49673 172.52191 753 ft 84 kts 178°
2026-04-19 08:21 -43.50175 172.52676 1026 ft 87 kts 143°
2026-04-19 08:22 -43.50560 172.53360 1196 ft 96 kts 136°
2026-04-19 08:22 -43.50900 172.54133 1491 ft 89 kts 128°
2026-04-19 08:22 -43.51185 172.54873 1480 ft 87 kts 126°
2026-04-19 08:22 -43.51393 172.55650 1448 ft 87 kts 117°
2026-04-19 08:23 -43.51546 172.56457 1440 ft 89 kts 114°
2026-04-19 08:23 -43.51640 172.57304 1438 ft 90 kts 108°
2026-04-19 08:23 -43.51714 172.58164 1421 ft 92 kts 105°
2026-04-19 08:23 -43.51774 172.59051 1399 ft 91 kts 106°
2026-04-19 08:24 -43.51849 172.59910 1435 ft 93 kts 105°
2026-04-19 08:24 -43.51908 172.60794 1448 ft 92 kts 103°
2026-04-19 08:24 -43.51956 172.61677 1437 ft 93 kts 103°
2026-04-19 08:24 -43.52003 172.62558 1440 ft 90 kts 103°
2026-04-19 08:25 -43.52034 172.63422 1424 ft 91 kts 101°
2026-04-19 08:25 -43.52090 172.64282 1414 ft 88 kts 117°
2026-04-19 08:25 -43.52278 172.65102 1424 ft 90 kts 117°
2026-04-19 08:25 -43.52448 172.65931 1451 ft 90 kts 116°
2026-04-19 08:26 -43.52620 172.66748 1478 ft 90 kts 116°
2026-04-19 08:26 -43.52771 172.67596 1452 ft 93 kts 111°
2026-04-19 08:26 -43.52885 172.68465 1446 ft 94 kts 107°
2026-04-19 08:26 -43.52942 172.69382 1452 ft 98 kts 103°
2026-04-19 08:27 -43.53032 172.70315 1466 ft 98 kts 108°
2026-04-19 08:27 -43.53143 172.71247 1478 ft 98 kts 109°
2026-04-19 08:27 -43.53285 172.72134 1514 ft 96 kts 112°
2026-04-19 08:27 -43.53458 172.73052 1475 ft 98 kts 115°
2026-04-19 08:28 -43.53085 172.73121 1464 ft 87 kts 250°
2026-04-19 08:28 -43.53481 172.73535 1478 ft 98 kts 126°
2026-04-19 08:28 -43.53791 172.74350 1423 ft 96 kts 127°
2026-04-19 08:28 -43.54179 172.75085 1359 ft 99 kts 160°
2026-04-19 08:29 -43.54782 172.75287 1673 ft 80 kts 175°
2026-04-19 08:29 -43.55316 172.75437 1913 ft 78 kts 174°
2026-04-19 08:29 -43.55785 172.75598 1802 ft 67 kts 174°
2026-04-19 08:29 -43.55808 172.76251 1415 ft 99 kts 29°
2026-04-19 08:30 -43.55292 172.75888 1036 ft 87 kts 300°
2026-04-19 08:30 -43.54892 172.75277 763 ft 88 kts 311°
2026-04-19 08:30 -43.54421 172.74817 523 ft 73 kts 320°
2026-04-19 08:30 -43.53974 172.74570 194 ft 74 kts 335°
2026-04-19 08:31 -43.53552 172.74370 6 ft 43 kts 345°
2026-04-19 08:31 -43.53502 172.74366 -2 ft 2 kts 340°
2026-04-19 08:31 -43.53481 172.74347 0 ft 7 kts 287°
2026-04-19 08:31 -43.53361 172.74269 10 ft 38 kts 333°
2026-04-19 08:32 -43.53330 172.74435 371 ft 656 kts 31°
2026-04-19 08:32 -43.53341 172.74807 115 ft 101 kts 17°
2026-04-19 08:32 -43.52659 172.75145 419 ft 104 kts 16°
2026-04-19 08:32 -43.51939 172.75375 689 ft 93 kts
2026-04-19 08:33 -43.51243 172.75390 830 ft 99 kts 344°
2026-04-19 08:33 -43.51021 172.74722 698 ft 86 kts 262°
2026-04-19 08:33 -43.51131 172.74092 629 ft 92 kts 250°